IBS31WP LEMD-LPPR

Flight info

Callsign IBS31WP
Flight time 0h 50m
Altitude 30000
Route BARDI DCT RIVRO DCT PESUL
Aircraft A320/M-SDE3FGHIRWY/LB1

Departure

Time 2026-05-06 20:42
Airport Adolfo Suárez Madrid–Barajas Airport (LEMD)

Arrival

Time 2026-05-06 21:32
Airport Francisco de Sá Carneiro Airport (LPPR)
Time Latitude Longitude Altitude Speed Heading
2026-05-06 19:53 40.48879 -3.59000 1981 ft 0 kts 269°
2026-05-06 20:33 40.48879 -3.58976 1982 ft 4 kts 265°
2026-05-06 20:33 40.48883 -3.58942 1982 ft 4 kts 253°
2026-05-06 20:33 40.48894 -3.58911 1980 ft 4 kts 219°
2026-05-06 20:33 40.48908 -3.58902 1981 ft 1 kts 179°
2026-05-06 20:34 40.48911 -3.58902 1980 ft 0 kts 179°
2026-05-06 20:36 40.48909 -3.58902 1981 ft 2 kts 179°
2026-05-06 20:36 40.48851 -3.58901 1980 ft 9 kts 180°
2026-05-06 20:36 40.48792 -3.58900 1980 ft 8 kts 175°
2026-05-06 20:36 40.48760 -3.58838 1980 ft 11 kts 90°
2026-05-06 20:37 40.48760 -3.58717 1980 ft 15 kts 91°
2026-05-06 20:37 40.48759 -3.58570 1980 ft 17 kts 91°
2026-05-06 20:37 40.48760 -3.58407 1980 ft 19 kts 89°
2026-05-06 20:37 40.48762 -3.58226 1980 ft 21 kts 89°
2026-05-06 20:38 40.48785 -3.58067 1980 ft 13 kts 37°
2026-05-06 20:38 40.48878 -3.58059 1982 ft 14 kts 360°
2026-05-06 20:38 40.48982 -3.58060 1980 ft 16 kts 360°
2026-05-06 20:38 40.49100 -3.58060 1980 ft 18 kts 360°
2026-05-06 20:39 40.49210 -3.58060 1982 ft 12 kts
2026-05-06 20:39 40.49247 -3.57979 1980 ft 12 kts 89°
2026-05-06 20:39 40.49245 -3.57870 1980 ft 12 kts 92°
2026-05-06 20:39 40.49244 -3.57750 1980 ft 14 kts 89°
2026-05-06 20:40 40.49250 -3.57616 1980 ft 15 kts 72°
2026-05-06 20:40 40.49274 -3.57561 1982 ft 4 kts 57°
2026-05-06 20:40 40.49309 -3.57512 1980 ft 11 kts 41°
2026-05-06 20:40 40.49380 -3.57463 1982 ft 8 kts
2026-05-06 20:41 40.49387 -3.57463 1980 ft 0 kts 358°
2026-05-06 20:41 40.49392 -3.57463 1980 ft 7 kts 358°
2026-05-06 20:41 40.49681 -3.57464 1981 ft 81 kts 360°
2026-05-06 20:42 40.50469 -3.57470 1981 ft 143 kts 360°
2026-05-06 20:42 40.51609 -3.57470 2194 ft 172 kts
2026-05-06 20:42 40.52804 -3.57461 2943 ft 173 kts
2026-05-06 20:42 40.54009 -3.57467 3665 ft 175 kts
2026-05-06 20:43 40.55268 -3.57469 4202 ft 187 kts
2026-05-06 20:43 40.56598 -3.57477 4789 ft 195 kts
2026-05-06 20:43 40.57966 -3.57499 5409 ft 198 kts
2026-05-06 20:43 40.59363 -3.57502 6010 ft 204 kts
2026-05-06 20:44 40.60757 -3.57206 6589 ft 207 kts 17°
2026-05-06 20:44 40.62136 -3.56598 7158 ft 212 kts 20°
2026-05-06 20:44 40.63574 -3.55834 7471 ft 236 kts 18°
2026-05-06 20:44 40.65308 -3.55697 7857 ft 262 kts 351°
2026-05-06 20:45 40.67193 -3.56000 8377 ft 282 kts 357°
2026-05-06 20:45 40.69157 -3.56047 9205 ft 289 kts
2026-05-06 20:45 40.71184 -3.55988 10093 ft 294 kts
2026-05-06 20:45 40.73306 -3.55970 10515 ft 317 kts 354°
2026-05-06 20:46 40.75471 -3.56818 10964 ft 334 kts 330°
2026-05-06 20:46 40.77251 -3.58793 11714 ft 339 kts 306°
2026-05-06 20:46 40.78315 -3.61554 12535 ft 340 kts 283°
2026-05-06 20:46 40.78541 -3.63640 13106 ft 340 kts 268°
2026-05-06 20:47 40.78514 -3.64477 13336 ft 339 kts 261°
2026-05-06 20:47 40.77996 -3.67513 14127 ft 341 kts 254°
2026-05-06 20:47 40.77439 -3.70558 14894 ft 343 kts 256°
2026-05-06 20:47 40.76908 -3.73641 15650 ft 345 kts 256°
2026-05-06 20:48 40.76387 -3.76737 16430 ft 347 kts 256°
2026-05-06 20:48 40.75861 -3.79852 17204 ft 349 kts 256°
2026-05-06 20:48 40.75325 -3.82986 17963 ft 352 kts 257°
2026-05-06 20:48 40.74782 -3.86140 18633 ft 354 kts 256°
2026-05-06 20:49 40.74228 -3.89321 19259 ft 357 kts 256°
2026-05-06 20:49 40.73664 -3.92524 19871 ft 361 kts 256°
2026-05-06 20:49 40.73089 -3.95764 20492 ft 364 kts 256°
2026-05-06 20:49 40.72510 -3.99022 21091 ft 367 kts 256°
2026-05-06 20:50 40.71926 -4.02307 21670 ft 370 kts 256°
2026-05-06 20:50 40.71337 -4.05620 22248 ft 373 kts 256°
2026-05-06 20:50 40.70744 -4.08961 22821 ft 376 kts 256°
2026-05-06 20:50 40.70142 -4.12339 23377 ft 380 kts 256°
2026-05-06 20:51 40.69534 -4.15738 23839 ft 383 kts 256°
2026-05-06 20:51 40.68923 -4.19164 24301 ft 386 kts 256°
2026-05-06 20:51 40.68310 -4.22611 24771 ft 388 kts 256°
2026-05-06 20:51 40.67901 -4.24907 25087 ft 389 kts 256°
2026-05-06 20:52 40.67075 -4.29532 25697 ft 392 kts 256°
2026-05-06 20:52 40.66443 -4.33035 26158 ft 395 kts 256°
2026-05-06 20:52 40.65805 -4.36556 26602 ft 397 kts 256°
2026-05-06 20:52 40.65161 -4.40099 27044 ft 399 kts 256°
2026-05-06 20:53 40.64515 -4.43658 27479 ft 401 kts 255°
2026-05-06 20:53 40.64075 -4.46081 27765 ft 403 kts 256°
2026-05-06 20:53 40.63422 -4.49676 28203 ft 405 kts 255°
2026-05-06 20:53 40.62642 -4.53238 28627 ft 406 kts 248°
2026-05-06 20:54 40.61426 -4.56596 29055 ft 408 kts 239°
2026-05-06 20:54 40.59812 -4.59672 29464 ft 410 kts 233°
2026-05-06 20:54 40.58094 -4.62691 29852 ft 412 kts 233°
2026-05-06 20:55 40.54760 -4.68554 29934 ft 388 kts 233°
2026-05-06 20:55 40.51579 -4.74143 29938 ft 379 kts 233°
2026-05-06 20:56 40.48428 -4.79676 29934 ft 378 kts 233°
2026-05-06 20:56 40.45546 -4.85425 29936 ft 377 kts 246°
2026-05-06 20:56 40.44726 -4.88694 29934 ft 378 kts 257°
2026-05-06 20:57 40.44442 -4.92128 29938 ft 381 kts 268°
2026-05-06 20:57 40.45080 -4.99058 29930 ft 383 kts 276°
2026-05-06 20:58 40.45820 -5.05972 29927 ft 383 kts 275°
2026-05-06 20:58 40.46538 -5.12892 29927 ft 383 kts 275°
2026-05-06 20:59 40.47265 -5.19821 29915 ft 383 kts 275°
2026-05-06 20:59 40.47991 -5.26742 29921 ft 383 kts 275°
2026-05-06 21:00 40.48721 -5.33680 29925 ft 383 kts 275°
2026-05-06 21:00 40.49437 -5.40572 29923 ft 383 kts 275°
2026-05-06 21:01 40.50157 -5.47510 29915 ft 384 kts 275°
2026-05-06 21:01 40.50868 -5.54453 29917 ft 384 kts 275°
2026-05-06 21:02 40.51572 -5.61408 29917 ft 384 kts 275°
2026-05-06 21:02 40.52277 -5.68359 29916 ft 384 kts 275°
2026-05-06 21:03 40.52983 -5.75320 29912 ft 384 kts 275°
2026-05-06 21:03 40.53679 -5.82276 29904 ft 384 kts 274°
2026-05-06 21:04 40.54367 -5.89247 29908 ft 384 kts 274°
2026-05-06 21:04 40.55058 -5.96216 29907 ft 385 kts 274°
2026-05-06 21:05 40.55740 -6.03197 29903 ft 385 kts 274°
2026-05-06 21:05 40.56412 -6.10134 29907 ft 385 kts 274°
2026-05-06 21:06 40.57090 -6.17121 29900 ft 385 kts 274°
2026-05-06 21:06 40.57763 -6.24106 29896 ft 385 kts 274°
2026-05-06 21:07 40.58436 -6.31104 29901 ft 385 kts 274°
2026-05-06 21:07 40.59098 -6.38094 29902 ft 385 kts 274°
2026-05-06 21:08 40.59752 -6.45091 29903 ft 386 kts 274°
2026-05-06 21:08 40.60416 -6.52111 29906 ft 386 kts 274°
2026-05-06 21:09 40.61074 -6.59126 29906 ft 387 kts 274°
2026-05-06 21:09 40.61723 -6.66156 29913 ft 387 kts 274°
2026-05-06 21:10 40.62450 -6.73167 29906 ft 389 kts 280°
2026-05-06 21:10 40.63770 -6.80039 29911 ft 390 kts 281°
2026-05-06 21:11 40.65101 -6.86956 29910 ft 390 kts 281°
2026-05-06 21:11 40.66427 -6.93896 29686 ft 390 kts 281°
2026-05-06 21:11 40.67084 -6.97353 29403 ft 388 kts 280°
2026-05-06 21:12 40.67734 -7.00775 29054 ft 382 kts 281°
2026-05-06 21:12 40.68380 -7.04168 28903 ft 383 kts 281°
2026-05-06 21:12 40.69031 -7.07589 28840 ft 386 kts 281°
2026-05-06 21:12 40.69683 -7.11048 27811 ft 395 kts 281°
2026-05-06 21:13 40.70343 -7.14564 27217 ft 393 kts 281°
2026-05-06 21:13 40.71001 -7.18035 26792 ft 386 kts 281°
2026-05-06 21:13 40.71649 -7.21447 26345 ft 381 kts 281°
2026-05-06 21:13 40.72286 -7.24810 25916 ft 376 kts 281°
2026-05-06 21:14 40.72915 -7.28145 25473 ft 372 kts 281°
2026-05-06 21:14 40.73551 -7.31436 24922 ft 371 kts 285°
2026-05-06 21:14 40.74619 -7.34615 23954 ft 386 kts 297°
2026-05-06 21:14 40.76011 -7.37701 22892 ft 397 kts 300°
2026-05-06 21:15 40.77499 -7.40825 21739 ft 408 kts 300°
2026-05-06 21:15 40.79004 -7.44040 20599 ft 416 kts 299°
2026-05-06 21:15 40.80491 -7.47356 19503 ft 424 kts 298°
2026-05-06 21:15 40.81947 -7.50765 18399 ft 423 kts 297°
2026-05-06 21:16 40.83339 -7.54119 17228 ft 411 kts 297°
2026-05-06 21:16 40.84683 -7.57343 16112 ft 401 kts 298°
2026-05-06 21:16 40.86046 -7.60500 15048 ft 391 kts 300°
2026-05-06 21:16 40.87483 -7.63516 14053 ft 383 kts 302°
2026-05-06 21:17 40.88940 -7.66412 13016 ft 375 kts 303°
2026-05-06 21:17 40.90343 -7.69258 12145 ft 362 kts 296°
2026-05-06 21:17 40.91149 -7.72239 12002 ft 330 kts 279°
2026-05-06 21:17 40.91447 -7.75144 11936 ft 312 kts 275°
2026-05-06 21:18 40.91702 -7.77985 11856 ft 315 kts 275°
2026-05-06 21:18 40.91953 -7.80883 11791 ft 319 kts 275°
2026-05-06 21:18 40.92203 -7.83795 11734 ft 317 kts 275°
2026-05-06 21:18 40.92445 -7.86661 11565 ft 314 kts 275°
2026-05-06 21:19 40.92683 -7.89524 11215 ft 313 kts 275°
2026-05-06 21:19 40.92919 -7.92386 10869 ft 311 kts 275°
2026-05-06 21:19 40.93152 -7.95225 10527 ft 310 kts 274°
2026-05-06 21:19 40.93384 -7.98052 10183 ft 309 kts 274°
2026-05-06 21:20 40.93613 -8.00866 9894 ft 307 kts 274°
2026-05-06 21:20 40.93841 -8.03646 9662 ft 301 kts 274°
2026-05-06 21:20 40.94067 -8.06368 9415 ft 294 kts 274°
2026-05-06 21:20 40.94287 -8.09035 9073 ft 290 kts 274°
2026-05-06 21:21 40.94501 -8.11674 8731 ft 287 kts 274°
2026-05-06 21:21 40.94712 -8.14286 8394 ft 284 kts 274°
2026-05-06 21:21 40.94921 -8.16862 8064 ft 280 kts 275°
2026-05-06 21:21 40.95125 -8.19405 7736 ft 276 kts 275°
2026-05-06 21:22 40.95326 -8.21914 7408 ft 273 kts 275°
2026-05-06 21:22 40.95524 -8.24368 7091 ft 271 kts 275°
2026-05-06 21:22 40.95721 -8.26833 6768 ft 269 kts 275°
2026-05-06 21:22 40.95914 -8.29284 6454 ft 267 kts 275°
2026-05-06 21:23 40.96107 -8.31731 6119 ft 266 kts 275°
2026-05-06 21:23 40.96300 -8.34154 5774 ft 264 kts 276°
2026-05-06 21:23 40.96490 -8.36551 5451 ft 259 kts 276°
2026-05-06 21:23 40.96673 -8.38857 5195 ft 246 kts 276°
2026-05-06 21:24 40.96847 -8.41078 4992 ft 240 kts 276°
2026-05-06 21:24 40.97017 -8.43253 4794 ft 237 kts 277°
2026-05-06 21:24 40.97185 -8.45414 4593 ft 236 kts 277°
2026-05-06 21:24 40.97353 -8.47570 4379 ft 235 kts 277°
2026-05-06 21:25 40.97519 -8.49709 4173 ft 232 kts 277°
2026-05-06 21:25 40.97680 -8.51809 4043 ft 229 kts 277°
2026-05-06 21:25 40.97840 -8.53893 4011 ft 227 kts 277°
2026-05-06 21:25 40.98000 -8.55976 4013 ft 228 kts 277°
2026-05-06 21:26 40.98166 -8.58065 4011 ft 228 kts 280°
2026-05-06 21:26 40.98710 -8.59982 4009 ft 218 kts 306°
2026-05-06 21:26 40.99762 -8.61298 4009 ft 202 kts 331°
2026-05-06 21:26 41.01029 -8.61892 4027 ft 187 kts 350°
2026-05-06 21:27 41.02299 -8.62221 4022 ft 185 kts 349°
2026-05-06 21:27 41.03557 -8.62557 4013 ft 184 kts 349°
2026-05-06 21:27 41.04815 -8.62896 3970 ft 186 kts 349°
2026-05-06 21:27 41.06084 -8.63237 3676 ft 184 kts 349°
2026-05-06 21:28 41.07321 -8.63561 3421 ft 179 kts 349°
2026-05-06 21:28 41.08516 -8.63869 3185 ft 176 kts 349°
2026-05-06 21:28 41.09706 -8.64175 2938 ft 173 kts 350°
2026-05-06 21:28 41.10873 -8.64476 2711 ft 169 kts 349°
2026-05-06 21:29 41.12010 -8.64771 2490 ft 165 kts 350°
2026-05-06 21:29 41.13118 -8.65059 2264 ft 159 kts 349°
2026-05-06 21:29 41.14171 -8.65335 2061 ft 150 kts 349°
2026-05-06 21:29 41.15158 -8.65594 1878 ft 140 kts 349°
2026-05-06 21:30 41.16096 -8.65840 1691 ft 137 kts 350°
2026-05-06 21:30 41.17023 -8.66082 1507 ft 135 kts 349°
2026-05-06 21:30 41.17940 -8.66322 1334 ft 136 kts 349°
2026-05-06 21:30 41.18860 -8.66562 1156 ft 134 kts 351°
2026-05-06 21:31 41.19777 -8.66801 963 ft 134 kts 349°
2026-05-06 21:31 41.20699 -8.67043 783 ft 136 kts 346°
2026-05-06 21:31 41.21620 -8.67301 590 ft 134 kts 348°
2026-05-06 21:31 41.22540 -8.67543 422 ft 135 kts 349°
2026-05-06 21:32 41.23461 -8.67775 268 ft 135 kts 346°
2026-05-06 21:32 41.24886 -8.68149 205 ft 52 kts 347°
2026-05-06 21:32 41.25142 -8.68158 198 ft 22 kts 13°
2026-05-06 21:33 41.25238 -8.68117 183 ft 1 kts 20°
2026-05-06 21:33 41.25278 -8.68091 182 ft 14 kts 35°
2026-05-06 21:33 41.25288 -8.68019 182 ft 3 kts 169°
2026-05-06 21:33 41.25222 -8.68002 191 ft 18 kts 169°
2026-05-06 21:34 41.25112 -8.67975 190 ft 14 kts 169°
2026-05-06 21:34 41.25031 -8.67954 200 ft 10 kts 169°
2026-05-06 21:34 41.24977 -8.67940 199 ft 6 kts 169°
2026-05-06 21:34 41.24946 -8.67933 196 ft 4 kts 169°
2026-05-06 21:35 41.24885 -8.67913 209 ft 13 kts 162°
2026-05-06 21:35 41.24780 -8.67844 205 ft 20 kts 155°
2026-05-06 21:35 41.24662 -8.67803 212 ft 15 kts 169°
2026-05-06 21:35 41.24576 -8.67781 216 ft 10 kts 168°
2026-05-06 21:36 41.24493 -8.67757 220 ft 14 kts 168°
2026-05-06 21:36 41.24409 -8.67735 226 ft 11 kts 168°
2026-05-06 21:36 41.24303 -8.67696 231 ft 15 kts 149°
2026-05-06 21:36 41.24248 -8.67612 235 ft 12 kts 125°
2026-05-06 21:37 41.24189 -8.67517 240 ft 12 kts 136°
2026-05-06 21:37 41.24134 -8.67463 242 ft 11 kts 151°
2026-05-06 21:37 41.24024 -8.67419 242 ft 14 kts 176°
2026-05-06 21:37 41.23952 -8.67455 240 ft 9 kts 211°
2026-05-06 21:38 41.23919 -8.67424 242 ft 3 kts 123°
2026-05-06 21:38 41.23910 -8.67404 242 ft 3 kts 123°
2026-05-06 21:38 41.23902 -8.67388 242 ft 0 kts 123°